Weather in Kayashkan

Russia / Altai Republic     52°22′32″N   87°21′44″E
temp.,
°C
wind,
m/s
gust,
m/s
humid.,
%
clouds,
%
prec.,
mm/h
press.,
hPa
HPBL,
m
25 february, thu
thu2501:00−2w3997100 0.5 1012581
04:00−8wnw51194100 1.3 1014804
07:00−11n3596100 2.4 1015346
10:00−12nw2495100 1.1 1016392
13:00−12wnw3494100 2.4 1018598
16:00−14wnw4594100 0.8 1020589
19:00−17wnw3897100 1.4 1023907
22:00−19ese2298100 0.6 102733
26 february, fri
fri2601:00−21sse1199100 0.6 102820
04:00−20w31099100 0.5 10291006
07:00−23w21099100 0.9 1032948
10:00−23wsw41197100 0.6 10341046
13:00−20w61285100 0.9 10341305
16:00−20w4789100 0.1 10351093
19:00−22wsw1199100 0.4 103721
22:00−23ssw1299100 0.3 103926
27 february, sat
sat2701:00−24s1199100 0.4 104020
04:00−24sse1198100 0.1 104019
07:00−25e1197100 0.1 104020
10:00−21se1193100 0.0 1039165
13:00−16w1282100 0.0 1038620
16:00−16nw2283100 0.0 1036637
19:00−19nne1195100 0.0 103820
22:00−21e1196100 0.0 104020
28 february, sun
sun2801:00−21ese1195100 0.0 104020
04:00−23se129699 0.0 104120
07:00−23ese229499 0.0 104120
10:00−18se2291100 0.0 1040103
13:00−11se1280100 0.0 1037374
16:00−8sse117699 0.0 1035615
19:00−13ese228499 0.0 103520
22:00−13ese2385100 0.0 103454
1 march, mon
mon101:00−13ese2387100 0.0 103253
04:00−12ese3488100 0.0 1029105
07:00−12se3488100 0.1 1027153
10:00−10se3596100 1.4 1024226
13:00−6sse2496100 2.4 1021265
16:00−3ssw2595100 0.4 1018392
19:00−3w1497100 0.5 1018209
22:00−4wsw21097100 1.8 1019564